Погода в Новорождественском

Россия / Томская область     56°29′22″N   86°00′04″E
темп.,
°C
ветер,
м/с
пор.,
м/с
влажн.,
%
обл.,
%
осадки,
мм/ч
давл.,
гПа
погр.,
м
13 апреля, вт
вт1301:00+1з4998100 5.1 1024501
04:00+1сз3897100 0.4 1024382
07:00−1сз379685 0.4 1026274
10:000сз4687100 0.0 1028627
13:00+3зсз467071 0.0 10281133
16:00+3зсз587959 0.1 10281203
19:00+3з3678100 0.1 1028188
22:00+1зсз41196100 0.1 1028608
14 апреля, ср
ср1401:00+1з3898100 0.3 1029488
04:00+1зюз41090100 0.0 1028553
07:00+1з41093100 0.0 1028544
10:00+1юз41097100 0.8 1026419
13:00+1юз51497100 2.1 1023720
16:00+3зюз71593100 2.0 10201084
19:00+3з61297100 2.2 10201051
22:00+3зсз41096100 0.1 1021642
15 апреля, чт
чт1501:00+3зсз3897100 0.2 1022548
04:00+2зсз2597100 0.1 1023168
07:00+1зюз2399100 0.3 102494
10:00+2юз2599100 0.1 1024226
13:00+5юз3791100 0.1 1023601
16:00+7юз4780100 0.1 1021870
19:00+5юз41092100 0.1 1019500
22:00+5юз41195100 0.0 1019401
16 апреля, пт
пт1601:00+5юз4139577 0.0 1017400
04:00+5юз51496100 0.0 1015437
07:00+5юз61397100 0.0 1014532
10:00+8юз5138658 0.0 1013586
13:00+13юз6116827 0.0 10111180
16:00+15зюз7136217 0.1 10081583
19:00+4с51093100 2.1 1011391
22:00+3ссв4787100 0.9 1014575
17 апреля, сб
сб1701:00+1ссв5896100 1.3 1014495
04:00−2ссв6992100 1.3 1014640
07:00−4св51090100 3.0 1014677
10:00−3св6982100 0.6 1014820
13:00−1св6980100 1.8 10131037
16:00−1св6980100 0.3 10131035
19:00−3св6979100 0.4 10141009
22:00−4св51184100 0.3 1015898